Tracking 22439 objects as of 27-Feb-2021
HD Live streaming from Space Station
objects crossing your sky now

AYAME 1 (ECS 1)

Track AYAME 1 (ECS 1) now!
AYAME 1 (ECS 1) is classified as:


NORAD ID: 11261
Int'l Code: 1979-009A
Perigee: 12,635.1 km
Apogee: 34,266.5 km
Inclination: 10.1 °
Period: 854.2 minutes
Semi major axis: 29821 km
RCS: 0.2528 m2 (medium)
Launch date: February 6, 1979
Source: Japan (JPN)
Launch site: TANEGASHIMA SPACE CENTER (TNSTA)
aabbcc
Your satellite tracking list
Your tracking list is empty




NASA's NSSDC Master Catalog

Two Line Element Set (TLE):
1 11261U 79009A   21058.33658231 -.00000117  00000-0  00000-0 0  9993
2 11261  10.0835  46.5028 3626777 283.5733  45.8832  1.68578671143528
Source of the keplerian elements: AFSPC